{"data":{"norad_id":61603,"intl_designator":"2024-188K","name":"ONEWEB-0697","alt_names":[],"object_type":"PAYLOAD","status":"ACTIVE","operator":null,"country":"UK","launch_date":"2024-10-20","launch_site_code":"AFWTR","launch_vehicle":null,"mission":null,"orbit_class":"UNKNOWN","rcs_meters":null,"size_class":null,"mass_kg":null,"dimensions":null,"purposes":["comms"],"wikipedia_slug":null,"has_3d_model":false,"image_url":null,"decayed_at":null,"tle_current":{"epoch":"2026-05-25T02:33:45.201024Z","epoch_age_seconds":72724,"freshness":"FRESH","line1":"1 61603U 24188K   26145.10677316  .00000379  00000+0  10323-2 0  9997","line2":"2 61603  87.8911  25.6592 0001041  87.8839 272.2408 13.11417881 81425","mean_motion":13.11417881,"eccentricity":0.0001041,"inclination_deg":87.8911,"raan_deg":25.6592,"arg_perigee_deg":87.8839,"mean_anomaly_deg":272.2408,"bstar":0.0010323,"rev_number":8142,"period_min":109.80481666926,"perigee_km":1216.8883596694,"apogee_km":1218.4698085781,"semimajor_km":7595.8160841237,"source":"CELESTRAK","updated_at":"2026-05-25T13:38:22.749841Z"}}}